This demonstration page uses our WeatherBlox Daily Observations layout. Learn more.

Left ArrowRight Arrow

Hourly Observations for August 7, 2022

Temp ( °F °C ) Dew Point ( °F °C ) Humidity (%) Winds ( mph kmh ) Pressure ( in mb ) Visibility ( mi km ) Precip ( " mm )
12:53 am 00:53 Clear 62 16.7 50 10 65 65 SW 14 22 29.99 1016 10 16 0.00 0.00
1:53 am 01:53 Clear 63 17.2 52 11.1 68 68 WSW 10 17 29.98 1015 10 16 0.00 0.00
2:53 am 02:53 Clear 60 15.6 52 11.1 75 75 SW 8 13 30.01 1016 10 16 0.00 0.00
3:53 am 03:53 Clear 60 15.6 51 10.6 72 72 W 5 7 30.02 1017 10 16 0.00 0.00
4:53 am 04:53 Mostly Clear 54 12.2 50 10 87 87 Calm 30.05 1018 10 16 0.00 0.00
5:53 am 05:53 Mostly Cloudy 54 12.2 50 10 87 87 SSE 3 6 30.08 1019 10 16 0.00 0.00
6:53 am 06:53 Sunny 54 12.2 51 10.6 90 90 Calm 30.11 1020 10 16 0.00 0.00
7:53 am 07:53 Sunny 61 16.1 52 11.1 72 72 Calm 30.12 1020 10 16 0.00 0.00
8:53 am 08:53 Sunny 67 19.4 53 11.7 61 61 Calm 30.13 1020 10 16 0.00 0.00
9:53 am 09:53 Sunny 70 21.1 52 11.1 53 53 Calm 30.13 1020 10 16 0.00 0.00
10:53 am 10:53 Sunny 75 23.9 50 10 41 41 NE 3 6 30.11 1020 10 16 0.00 0.00
11:53 am 11:53 Sunny 78 25.6 48 8.9 35 35 WNW 6 9 30.09 1019 10 16 0.00 0.00
12:53 pm 12:53 Sunny 79 26.1 47 8.3 32 32 VRB 3 6 30.09 1019 10 16 0.00 0.00
1:53 pm 13:53 Sunny 82 27.8 46 7.8 28 28 VRB 3 6 30.06 1018 10 16 0.00 0.00
2:53 pm 14:53 Sunny 85 29.4 46 7.8 26 26 undefined N/A 30.05 1018 10 16 0.00 0.00
3:53 pm 15:53 Mostly Cloudy 86 30 46 7.8 25 25 NNW 8 13 30.03 1017 10 16 0.00 0.00
4:53 pm 16:53 Mostly Sunny 86 30 45 7.2 24 24 undefined N/A 30.03 1017 10 16 0.00 0.00
5:53 pm 17:53 Partly Cloudy 86 30 46 7.8 25 25 SW 8 13 30.01 1016 10 16 0.00 0.00
6:53 pm 18:53 Sunny 84 28.9 46 7.8 27 27 N 7 11 30.02 1017 10 16 0.00 0.00
7:53 pm 19:53 Sunny 80 26.7 46 7.8 30 30 NNE 3 6 30.02 1017 10 16 0.00 0.00
8:53 pm 20:53 Clear 67 19.4 48 8.9 51 51 S 3 6 30.06 1018 10 16 0.00 0.00
9:53 pm 21:53 Clear 63 17.2 47 8.3 56 56 Calm 30.08 1019 10 16 0.00 0.00
10:53 pm 22:53 Clear 59 15 46 7.8 62 62 Calm 30.09 1019 10 16 0.00 0.00
11:53 pm 23:53 Clear 58 14.4 47 8.3 67 67 Calm 30.09 1019 10 16 0.00 0.00

Powered by AerisWeather